Forside
METAR-TAF:

METAR-TAF

Lufthavne :

Pella Municipal Airport

Pella, Iowa, USA

Breddekreds: 41-24N, længdekreds: 092-56W, højde: 270 m

Aktuelle vejr

Denne rapport blev lavet for 11 minutter siden, kl. 22:15 UTC
Vind stille
Temperatur 8°C
Fugtighed 57%
Tryk 1017 hPa
Sigt: 16.1 km
skyfri

METAR: KPEA 162215Z AUTO 00000KT 10SM CLR 08/00 A3003 RMK AO2 T00750000

Tid: 16:26 (22:26 UTC)


TAF: fraværende

Vejrobservationer og prognoser fra mere end 4000 lufthavne (METAR og TAF).

De gule og røde prikker repræsenterer de meteorologiske stationer.

Flyt musen over at se navnet på stationen.

Så klik over at se vejr observationer og prognoser.

At skifte det kort: Klik på de grønne knapper med et sort kors for at zoome ind; på den grønne knap med en bindestreg for at zoome ud; eller på de grønne pile for tilstødende kort.


METAR-TAF: